METEOR 2-11 DEB, 60006

Orbit data source: Space-Track

METEOR 2-11 DEB, 60006 is space debris in LEO originally from a launch on Thu, 05 Jul 1984 UTC launched from the Plesetsk Missile And Space Complex (PKMTR). Debris objects in space refer to the collection of defunct objects orbiting the Earth. Examples of debris include non-operational satellites, rocket bodies, and fragments generated from explosions, collisions, or faulty payload assembly.

Loading next visibility...
Identifier
60006, 1984-072AB
Orbit
LEO
Country
Flag of CISCIS
Related business
Manufacturer
Unknown
Mission
Spacecraft
Bus & Motor
Unknown
Mass
Unknown
Launch date (UTC)
1984-07-05 (41 years ago)
Launch vehicle
Unknown
Launch site
Plesetsk Missile And Space Complex (PKMTR)
Object type
Payload
Rocket body
Debris
Shape & HBR
Unknown
Radar Cross Section
Small (<0.1 m²)

Expand to show TLE details & history
Last TLE update: 6 days ago

TLE from 6 days ago
0 METEOR 2-11 DEB
1 60006U 84072AB  25255.24793826  .00001883  00000-0  13261-2 0  9998
2 60006  82.5227 234.9813 0015156 351.4566   8.6341 13.97560216391856
Epoch: 2025-09-12T05:57Z
TLE epoch observation values (Epoch: 2025-09-12T05:57:01.865Z)
Latitude
-0.00005°
Longitude
154.22514°
Altitude
894.265 km
Speed
7.411 km/s
True Right ascension
15h 39m 55s
True Declination
0° 00' 00"
Sunlit
Object was in daylight at epoch
Visualization orbit readout
Latitude
Unknown
Longitude
Unknown
Altitude
Unknown
Speed
Unknown
Apparent Right ascension
Unknown
Apparent Declination
Unknown
Sunlit
N/A
Visualization observer readout
Local Sidereal Time
03:22:18
Azimuth
Unknown
Elevation
Unknown
Doppler factor
Unknown
Orbital elements
Apogee altitude
910.42 km
Perigee altitude
888.36 km
Semi-major axis
7,277.527 km
Eccentricity
0.00152
Inclination
82.5227°
RAAN
234.9813°
Arg. of periapsis
351.4566°
True anomaly
8.66022°
Mean anomaly
8.6341°
Eccentric anomaly
8.64716°
Mean motion
3.49597 °/min
Orbital period
102.98 mins
BSTAR
0.0013261
Loading maneuver chart data...
Computing Atmospheric mass density...
Loading historical data...
Loading historical data...
Loading historical data...
Loading historical data...
Loading historical data...
Loading historical data...
Loading historical data...

Documentation

Showing up to 5 results
|